カタログに戻る

IRS 1B

運用中科学SSO
NORAD 21688·PAYLOAD·🇮🇳 India

打ち上げ Aug 29, 1991 から Baikonur Cosmodrome

Loading…

次のパス (今後24時間)

TLE

最新Source: Space-Track

元期: Sep 14, 2026, 19:48 UTC

1 21688U 91061A   26257.82522056 -.00000197  00000-0 -10610-3 0  9994
2 21688  99.4136 268.0178 0025127 119.1565  53.0671 13.97882975681013

AllMySatでIRS 1Bをリアルタイム追跡

Download on the App Store